軌道要素
Epoch 2015 Apr. 8.0 TT = JDT 2457120.5
T 2015 Mar. 25.20288 TT Veres
q 1.6469763 (2000.0) P Q
n 0.16013965 Peri. 337.81801 +0.79763798 -0.59412015
a 3.3584338 Node 59.04971 +0.56996753 +0.68616494
e 0.5095999 Incl. 6.95838 +0.19725785 +0.41976056
P 6.15
From 148 observations 2008 Nov. 30-2021 Dec. 2, mean residual 0".7.
|